Change the Weather History Date:

Tuesday, February 3, 2015

  Actual Average Record
Temperature  
Mean Temperature 67 °F -  
Max Temperature 77 °F 78 °F 85 °F (1972)
Min Temperature 57 °F 59 °F 39 °F (1951)
Cooling Degree Days 2    
Growing Degree Days 17 (Base 50)    
Moisture  
Dew Point 52 °F    
Average Humidity 57    
Maximum Humidity 72    
Minimum Humidity 50    
Precipitation  
Precipitation 0.00 in - - ()
Sea Level Pressure  
Sea Level Pressure 30.15 in    
Wind  
Wind Speed 10 mph (NNE)    
Max Wind Speed 15 mph    
Max Gust Speed 20 mph    
Visibility 10 miles    
Events      
Averages and records for this station are not official NWS values.
T = Trace of Precipitation, MM = Missing Value Source: NWS Daily Summary

Daily Weather History Graph

Daily Weather History Graph

Search for Another Location

Airport or City:

Trip Planner

Search our weather history database for the weather conditions in past years. The results will help you decide how hot, cold, wet, or windy it might be!

Date:

Astronomy

Feb. 03, 2015 Rise Set
Actual Time 7:03 AM EST 6:04 PM EST
Civil Twilight 6:39 AM EST 6:28 PM EST
Nautical Twilight 6:12 AM EST 6:56 PM EST
Astronomical Twilight 5:45 AM EST 7:23 PM EST
Moon 6:04 PM EST (2/3) 6:34 AM EST (2/3)
Length of Visible Light 11h 48m
Length of Day
11h 00m
Full, 100% of the Moon is Illuminated
Feb 3
Full
Feb 3
Full
Feb 11
Last Quarter
Feb 18
New
Feb 25
First Quarter

Hourly Weather History & Observations

Time (EST) Temp. Dew Point Humidity Pressure Visibility Wind Dir Wind Speed Gust Speed Precip Events Conditions
12:53 AM 64.9 °F 46.9 °F 52% 30.08 in 10.0 mi NNW 11.5 mph - N/A   Clear
1:53 AM 63.0 °F 46.9 °F 56% 30.08 in 9.0 mi NNW 11.5 mph - N/A   Clear
2:53 AM 61.0 °F 45.0 °F 56% 30.07 in 10.0 mi NNW 8.1 mph - N/A   Clear
3:53 AM 59.0 °F 45.0 °F 60% 30.08 in 10.0 mi NNW 6.9 mph - N/A   Clear
4:53 AM 57.9 °F 46.0 °F 65% 30.09 in 10.0 mi NNW 6.9 mph - N/A   Clear
5:53 AM 57.0 °F 46.9 °F 69% 30.11 in 10.0 mi NW 5.8 mph - N/A   Clear
6:53 AM 57.0 °F 48.0 °F 72% 30.13 in 10.0 mi NW 8.1 mph - N/A   Clear
7:53 AM 59.0 °F 48.9 °F 69% 30.15 in 10.0 mi NW 8.1 mph - N/A   Clear
8:53 AM 63.0 °F 51.1 °F 65% 30.17 in 10.0 mi NW 6.9 mph - N/A   Clear
9:53 AM 68.0 °F 52.0 °F 56% 30.19 in 10.0 mi NNW 6.9 mph - N/A   Clear
10:53 AM 73.9 °F 55.9 °F 53% 30.19 in 10.0 mi North 5.8 mph - N/A   Clear
11:53 AM 77.0 °F 60.1 °F 56% 30.19 in 10.0 mi NE 13.8 mph 18.4 mph N/A   Mostly Cloudy
12:53 PM 77.0 °F 59.0 °F 54% 30.18 in 10.0 mi ENE 13.8 mph - N/A   Partly Cloudy
1:53 PM 75.0 °F 57.0 °F 53% 30.16 in 10.0 mi ENE 13.8 mph - N/A   Partly Cloudy
2:53 PM 77.0 °F 57.0 °F 50% 30.15 in 10.0 mi NE 13.8 mph - N/A   Scattered Clouds
3:53 PM 75.0 °F 55.9 °F 51% 30.16 in 10.0 mi NE 13.8 mph - N/A   Partly Cloudy
4:53 PM 73.0 °F 55.0 °F 53% 30.17 in 10.0 mi NE 11.5 mph - N/A   Scattered Clouds
5:53 PM 72.0 °F 54.0 °F 53% 30.17 in 10.0 mi ENE 11.5 mph - N/A   Scattered Clouds
6:53 PM 71.1 °F 54.0 °F 55% 30.17 in 10.0 mi ENE 15.0 mph - N/A   Scattered Clouds
7:53 PM 71.1 °F 54.0 °F 55% 30.19 in 10.0 mi East 12.7 mph - N/A   Partly Cloudy
8:53 PM 70.0 °F 54.0 °F 57% 30.20 in 10.0 mi ENE 12.7 mph - N/A   Scattered Clouds
9:53 PM 70.0 °F 54.0 °F 57% 30.20 in 10.0 mi East 15.0 mph 19.6 mph N/A   Scattered Clouds
10:53 PM 70.0 °F 53.1 °F 55% 30.21 in 10.0 mi East 10.4 mph - N/A   Scattered Clouds
11:53 PM 70.0 °F 54.0 °F 57% 30.20 in 10.0 mi East 9.2 mph - N/A   Partly Cloudy